Time,TemperatureF,DewpointF,PressureIn,WindDirection,WindDirectionDegrees,WindSpeedMPH,WindSpeedGustMPH,Humidity,HourlyPrecipIn,Conditions,Clouds,dailyrainin,SolarRadiationWatts/m^2,SoftwareType,DateUTC
2013-06-07 00:00:00,64.0,52.0,-100.00,NNE,30,2.0,4.0,66,-99.99,,,0.00,0.000000,,2013-06-07 07:00:00,
2013-06-07 00:42:00,64.0,52.0,-100.00,NNE,30,2.0,4.0,66,-99.99,,,0.00,0.000000,,2013-06-07 07:42:00,
2013-06-07 00:52:00,64.0,52.0,-100.00,NNE,30,2.0,4.0,66,-99.99,,,0.00,0.000000,,2013-06-07 07:52:00,
2013-06-07 01:00:00,62.0,52.0,-100.00,NNE,28,3.0,5.0,70,-99.99,,,0.00,0.000000,,2013-06-07 08:00:00,
2013-06-07 01:32:00,62.0,52.0,-100.00,NNE,28,3.0,5.0,70,-99.99,,,0.00,0.000000,,2013-06-07 08:32:00,
2013-06-07 01:42:00,62.0,52.0,-100.00,NNE,28,3.0,5.0,70,-99.99,,,0.00,0.000000,,2013-06-07 08:42:00,
2013-06-07 01:52:00,62.0,52.0,-100.00,NNE,28,3.0,5.0,70,-99.99,,,0.00,0.000000,,2013-06-07 08:52:00,
2013-06-07 02:00:00,62.0,53.0,-100.00,NNE,24,2.0,4.0,73,-99.99,,,0.00,0.000000,,2013-06-07 09:00:00,
2013-06-07 02:43:00,62.0,53.0,-100.00,NNE,24,2.0,4.0,73,-99.99,,,0.00,0.000000,,2013-06-07 09:43:00,
2013-06-07 02:53:00,62.0,53.0,-100.00,NNE,24,2.0,4.0,73,-99.99,,,0.00,0.000000,,2013-06-07 09:53:00,
2013-06-07 03:00:00,59.0,53.0,-100.00,NE,38,4.0,6.0,79,-99.99,,,0.00,0.000000,,2013-06-07 10:00:00,
2013-06-07 03:32:00,59.0,53.0,-100.00,NE,38,4.0,6.0,79,-99.99,,,0.00,0.000000,,2013-06-07 10:32:00,
2013-06-07 03:42:00,59.0,53.0,-100.00,NE,38,4.0,6.0,79,-99.99,,,0.00,0.000000,,2013-06-07 10:42:00,
2013-06-07 03:53:00,59.0,53.0,-100.00,NE,38,4.0,6.0,79,-99.99,,,0.00,0.000000,,2013-06-07 10:53:00,
2013-06-07 04:00:00,59.0,52.0,-100.00,NNE,25,3.0,5.0,80,-99.99,,,0.00,0.000000,,2013-06-07 11:00:00,
2013-06-07 04:32:00,59.0,52.0,-100.00,NNE,25,3.0,5.0,80,-99.99,,,0.00,0.000000,,2013-06-07 11:32:00,
2013-06-07 04:42:00,59.0,52.0,-100.00,NNE,25,3.0,5.0,80,-99.99,,,0.00,0.000000,,2013-06-07 11:42:00,
2013-06-07 04:52:00,59.0,52.0,-100.00,NNE,25,3.0,5.0,80,-99.99,,,0.00,0.000000,,2013-06-07 11:52:00,
2013-06-07 05:00:00,59.0,53.0,-100.00,NNE,20,3.0,7.0,80,-99.99,,,0.00,1.740000,,2013-06-07 12:00:00,
2013-06-07 05:42:00,59.0,53.0,-100.00,NNE,20,3.0,7.0,80,-99.99,,,0.00,1.740000,,2013-06-07 12:42:00,
2013-06-07 05:52:00,59.0,53.0,-100.00,NNE,20,3.0,7.0,80,-99.99,,,0.00,1.740000,,2013-06-07 12:52:00,
2013-06-07 06:00:00,57.0,52.0,-100.00,NNE,20,2.0,4.0,83,-99.99,,,0.00,27.540001,,2013-06-07 13:00:00,
2013-06-07 06:42:00,57.0,52.0,-100.00,NNE,20,2.0,4.0,83,-99.99,,,0.00,27.540001,,2013-06-07 13:42:00,
2013-06-07 06:52:00,57.0,52.0,-100.00,NNE,20,2.0,4.0,83,-99.99,,,0.00,27.540001,,2013-06-07 13:52:00,
2013-06-07 07:00:00,61.0,54.0,-100.00,NE,50,2.0,4.0,79,-99.99,,,0.00,252.199997,,2013-06-07 14:00:00,
2013-06-07 07:42:00,61.0,54.0,-100.00,NE,50,2.0,4.0,79,-99.99,,,0.00,252.199997,,2013-06-07 14:42:00,
2013-06-07 07:52:00,61.0,54.0,-100.00,NE,50,2.0,4.0,79,-99.99,,,0.00,252.199997,,2013-06-07 14:52:00,
2013-06-07 08:00:00,63.0,54.0,-100.00,South,177,1.0,3.0,73,-99.99,,,0.00,233.020004,,2013-06-07 15:00:00,
2013-06-07 08:43:00,63.0,54.0,-100.00,South,177,1.0,3.0,73,-99.99,,,0.00,233.020004,,2013-06-07 15:43:00,
2013-06-07 08:53:00,63.0,54.0,-100.00,South,177,1.0,3.0,73,-99.99,,,0.00,233.020004,,2013-06-07 15:53:00,
2013-06-07 09:00:00,66.0,55.0,-100.00,SW,230,3.0,5.0,68,-99.99,,,0.00,489.869995,,2013-06-07 16:00:00,
2013-06-07 09:33:00,66.0,55.0,-100.00,SW,230,3.0,5.0,68,-99.99,,,0.00,489.869995,,2013-06-07 16:33:00,
2013-06-07 09:43:00,66.0,55.0,-100.00,SW,230,3.0,5.0,68,-99.99,,,0.00,489.869995,,2013-06-07 16:43:00,
2013-06-07 09:53:00,66.0,55.0,-100.00,SW,230,3.0,5.0,68,-99.99,,,0.00,489.869995,,2013-06-07 16:53:00,
2013-06-07 10:00:00,73.0,57.0,-100.00,SE,132,1.0,3.0,57,-99.99,,,0.00,556.109985,,2013-06-07 17:00:00,
2013-06-07 10:42:00,73.0,57.0,-100.00,SE,132,1.0,3.0,57,-99.99,,,0.00,556.109985,,2013-06-07 17:42:00,
2013-06-07 10:52:00,73.0,57.0,-100.00,SE,132,1.0,3.0,57,-99.99,,,0.00,556.109985,,2013-06-07 17:52:00,
2013-06-07 11:00:00,76.0,49.0,-100.00,West,266,6.0,12.0,39,-99.99,,,0.00,256.269989,,2013-06-07 18:00:00,
2013-06-07 11:43:00,76.0,49.0,-100.00,West,266,6.0,12.0,39,-99.99,,,0.00,256.269989,,2013-06-07 18:43:00,
2013-06-07 11:58:00,76.0,49.0,-100.00,West,266,6.0,12.0,39,-99.99,,,0.00,256.269989,,2013-06-07 18:58:00,
2013-06-07 12:00:00,78.0,51.0,-100.00,West,281,6.0,16.0,38,-99.99,,,0.00,630.609985,,2013-06-07 19:00:00,
2013-06-07 12:45:00,78.0,51.0,-100.00,West,281,6.0,16.0,38,-99.99,,,0.00,630.609985,,2013-06-07 19:45:00,
2013-06-07 12:57:00,78.0,51.0,-100.00,West,281,6.0,16.0,38,-99.99,,,0.00,630.609985,,2013-06-07 19:57:00,
2013-06-07 13:00:00,77.0,42.0,-100.00,West,266,10.0,17.0,28,-99.99,,,0.00,665.940002,,2013-06-07 20:00:00,
2013-06-07 13:36:00,77.0,42.0,-100.00,West,266,10.0,17.0,28,-99.99,,,0.00,665.940002,,2013-06-07 20:36:00,
2013-06-07 13:44:00,77.0,42.0,-100.00,West,266,10.0,17.0,28,-99.99,,,0.00,665.940002,,2013-06-07 20:44:00,
2013-06-07 13:57:00,77.0,42.0,-100.00,West,266,10.0,17.0,28,-99.99,,,0.00,665.940002,,2013-06-07 20:57:00,
2013-06-07 14:00:00,77.0,45.0,-100.00,WSW,256,10.0,17.0,32,-99.99,,,0.00,797.729980,,2013-06-07 21:00:00,
2013-06-07 14:38:00,77.0,45.0,-100.00,WSW,256,10.0,17.0,32,-99.99,,,0.00,797.729980,,2013-06-07 21:38:00,
2013-06-07 14:44:00,77.0,45.0,-100.00,WSW,256,10.0,17.0,32,-99.99,,,0.00,797.729980,,2013-06-07 21:44:00,
2013-06-07 14:59:00,77.0,45.0,-100.00,WSW,256,10.0,17.0,32,-99.99,,,0.00,797.729980,,2013-06-07 21:59:00,
2013-06-07 15:00:00,78.0,44.0,-100.00,WSW,256,8.0,18.0,29,-99.99,,,0.00,498.929993,,2013-06-07 22:00:00,
2013-06-07 15:35:00,78.0,44.0,-100.00,WSW,256,8.0,18.0,29,-99.99,,,0.00,498.929993,,2013-06-07 22:35:00,
2013-06-07 15:44:00,78.0,44.0,-100.00,WSW,256,8.0,18.0,29,-99.99,,,0.00,498.929993,,2013-06-07 22:44:00,
2013-06-07 15:59:00,78.0,44.0,-100.00,WSW,256,8.0,18.0,29,-99.99,,,0.00,498.929993,,2013-06-07 22:59:00,
2013-06-07 16:00:00,81.0,45.0,-100.00,WSW,256,8.0,14.0,29,-99.99,,,0.00,889.080017,,2013-06-07 23:00:00,
2013-06-07 16:35:00,81.0,45.0,-100.00,WSW,256,8.0,14.0,29,-99.99,,,0.00,889.080017,,2013-06-07 23:35:00,
2013-06-07 16:47:00,81.0,45.0,-100.00,WSW,256,8.0,14.0,29,-99.99,,,0.00,889.080017,,2013-06-07 23:47:00,
2013-06-07 17:00:00,82.0,49.0,-100.00,West,263,8.0,15.0,31,-99.99,,,0.00,497.420013,,2013-06-08 00:00:00,
2013-06-07 17:34:00,82.0,49.0,-100.00,West,263,8.0,15.0,31,-99.99,,,0.00,497.420013,,2013-06-08 00:34:00,
2013-06-07 17:44:00,82.0,49.0,-100.00,West,263,8.0,15.0,31,-99.99,,,0.00,497.420013,,2013-06-08 00:44:00,
2013-06-07 17:58:00,82.0,49.0,-100.00,West,263,8.0,15.0,31,-99.99,,,0.00,497.420013,,2013-06-08 00:58:00,
2013-06-07 18:00:00,83.0,46.0,-100.00,WNW,299,7.0,18.0,27,-99.99,,,0.00,417.929993,,2013-06-08 01:00:00,
2013-06-07 18:37:00,83.0,46.0,-100.00,WNW,299,7.0,18.0,27,-99.99,,,0.00,417.929993,,2013-06-08 01:37:00,
2013-06-07 18:44:00,83.0,46.0,-100.00,WNW,299,7.0,18.0,27,-99.99,,,0.00,417.929993,,2013-06-08 01:44:00,
2013-06-07 19:00:00,82.0,44.0,-100.00,WNW,298,5.0,19.0,26,-99.99,,,0.00,251.619995,,2013-06-08 02:00:00,
2013-06-07 19:33:00,82.0,44.0,-100.00,WNW,298,5.0,19.0,26,-99.99,,,0.00,251.619995,,2013-06-08 02:33:00,
2013-06-07 19:46:00,82.0,44.0,-100.00,WNW,298,5.0,19.0,26,-99.99,,,0.00,251.619995,,2013-06-08 02:46:00,
2013-06-07 19:58:00,82.0,44.0,-100.00,WNW,298,5.0,19.0,26,-99.99,,,0.00,251.619995,,2013-06-08 02:58:00,
2013-06-07 20:00:00,79.0,44.0,-100.00,NNW,332,4.0,13.0,28,-99.99,,,0.00,12.780000,,2013-06-08 03:00:00,
2013-06-07 20:59:00,79.0,44.0,-100.00,NNW,332,4.0,13.0,28,-99.99,,,0.00,12.780000,,2013-06-08 03:59:00,
2013-06-07 21:00:00,77.0,48.0,-100.00,NW,314,4.0,13.0,35,-99.99,,,0.00,0.930000,,2013-06-08 04:00:00,
2013-06-07 21:33:00,77.0,48.0,-100.00,NW,314,4.0,13.0,35,-99.99,,,0.00,0.930000,,2013-06-08 04:33:00,
2013-06-07 21:42:00,77.0,48.0,-100.00,NW,314,4.0,13.0,35,-99.99,,,0.00,0.930000,,2013-06-08 04:42:00,
2013-06-07 21:53:00,77.0,48.0,-100.00,NW,314,4.0,13.0,35,-99.99,,,0.00,0.930000,,2013-06-08 04:53:00,
2013-06-07 22:00:00,75.0,37.0,-100.00,NW,322,3.0,11.0,25,-99.99,,,0.00,0.000000,,2013-06-08 05:00:00,
2013-06-07 22:32:00,75.0,37.0,-100.00,NW,322,3.0,11.0,25,-99.99,,,0.00,0.000000,,2013-06-08 05:32:00,
2013-06-07 22:42:00,75.0,37.0,-100.00,NW,322,3.0,11.0,25,-99.99,,,0.00,0.000000,,2013-06-08 05:42:00,
2013-06-07 22:52:00,75.0,37.0,-100.00,NW,322,3.0,11.0,25,-99.99,,,0.00,0.000000,,2013-06-08 05:52:00,
2013-06-07 23:00:00,72.0,33.0,-100.00,WSW,251,8.0,16.0,23,-99.99,,,0.00,0.000000,,2013-06-08 06:00:00,
2013-06-07 23:32:00,72.0,33.0,-100.00,WSW,251,8.0,16.0,23,-99.99,,,0.00,0.000000,,2013-06-08 06:32:00,
2013-06-07 23:42:00,72.0,33.0,-100.00,WSW,251,8.0,16.0,23,-99.99,,,0.00,0.000000,,2013-06-08 06:42:00,
2013-06-07 23:52:00,72.0,33.0,-100.00,WSW,251,8.0,16.0,23,-99.99,,,0.00,0.000000,,2013-06-08 06:52:00,